Regional Weather Roundup
Issued by NWS

Home | Current Version | Previous Version | Text Only | Print | Product List | Glossary Off
Versions: 1 2 3 4 5 6 7 8 9 10 11 12 13 14 15 16 17 18 19 20 21 22 23 24 25 26 27 28

000
ASUS45 KTFX 240310
RWRMT
MONTANA REGIONAL WEATHER ROUNDUP
NATIONAL WEATHER SERVICE GREAT FALLS MT
800 PM MST THU NOV 23 2017

NOTE: "FAIR" INDICATES FEW OR NO CLOUDS BELOW 12000 FEET WITH NO
SIGNIFICANT WEATHER AND/OR OBSTRUCTIONS TO VISIBILITY.

MTZ001>007-043-240400-
WEST OF THE DIVIDE

CITY           SKY/WX    TMP DP  RH WIND       PRES   REMARKS
KALISPELL      CLOUDY    48  46  93 S10       29.57R
MISSOULA       LGT RAIN  47  45  93 S6        29.68S
BUTTE          FAIR      54  29  38 SW16G29   29.71F
MULLAN PASS    LGT RAIN  36  34  92 NW13G32   29.68R FOG     WCI  27
ANACONDA         N/A     54  32  43 S24G31    29.68F
DEER LODGE       N/A     46  45  93 NW14      29.70F
EUREKA           N/A     45  41  87 MISG      29.58R
HAMILTON         N/A     48  46  93 SE8       29.71F
LIBBY            N/A     52  43  71 SW6G20    29.59R
PLAINS           N/A     55  40  57 SW10      29.65
RONAN            N/A     53  42  66 SW10      29.72R
$$

MTZ008-052>055-240400-
SOUTHWEST MONTANA

CITY           SKY/WX    TMP DP  RH WIND       PRES   REMARKS
BOZEMAN        FAIR      58  30  34 SW18G30   29.68F
DILLON         FAIR      52  27  38 SW16      29.76F
W YELLOWSTONE  FAIR      41  37  87 SW9G17    29.93F
ENNIS          CLOUDY    50  32  50 S18       29.85F
TWIN BRIDGES     N/A     52  28  39 CALM      29.77
$$

MTZ009-010-012-014-046-048-049-054-240400-
EAST SLOPES AND CENTRAL MONTANA

CITY           SKY/WX    TMP DP  RH WIND       PRES   REMARKS
CUT BANK       MOCLDY    43  42  97 W3        29.47F
GREAT FALLS    FAIR      52  39  61 SW25G41   29.52F
MALMSTROM AFB  FAIR      54  40  60 SW33G45   29.53F
HELENA         CLOUDY    52  44  74 W14G20    29.64R
BOWMANS CRNR   FAIR      47  40  76 SW25G35   29.53F
CHOTEAU          N/A     50  41  71 SW17      29.53R
FAIRFIELD      MOCLDY    48  39  70 S14       29.51F
POWER          FAIR      49  39  66 SW24G33   29.50F
RAYNESFORD     FAIR      56  38  50 W32G41    29.55F
ULM            MOCLDY    54  40  60 SW26G39   29.55F
$$

MTZ011-013-016-021-045-047-050-051-240400-
NORTH CENTRAL MONTANA

CITY           SKY/WX    TMP DP  RH WIND       PRES   REMARKS
HAVRE          FAIR      53  41  63 W18       29.43R
LEWISTOWN      FAIR      55  32  41 SW16      29.54F
N BAR RANCH    FAIR      61  27  27 W23G32    29.58F
CHINOOK          N/A     54  39  58 W10       29.42F
DENTON         FAIR      51  39  63 W14       29.48S
GEYSER         MOCLDY    53  39  57 W15       29.53F
GRASS RANGE    FAIR      61  30  31 SW25G35   29.49F
STANFORD       FAIR      57  30  36 W18       29.55F
WINIFRED       FAIR      53  39  59 SW15      29.50S
$$

MTZ017>020-022>027-061-062-240400-
NORTHEAST MONTANA

CITY           SKY/WX    TMP DP  RH WIND       PRES   REMARKS
GLASGOW        FAIR      54  37  52 SW8       29.42F
GLENDIVE       FAIR      54  36  50 W14       29.49F
JORDAN           N/A     57  36  45 SW13      29.47F
SIDNEY         FAIR      48  36  63 SW14      29.42F
WOLF POINT     FAIR      51  35  54 SW10      29.41F
MALTA          PTCLDY    52  39  62 W5        29.42F
PLENTYWOOD       N/A     54  37  54 W10       29.36F
POPLAR           N/A     54  36  50 SW5       29.41F
SCOBEY           N/A     58  35  42 MISG      29.39
$$

MTZ028>42-056>058-240400-
SOUTHCENTRAL AND SOUTHEAST MONTANA

CITY           SKY/WX    TMP DP  RH WIND       PRES   REMARKS
BAKER          FAIR      57  37  47 SW18      29.54F
BILLINGS       FAIR      56  34  43 W13       29.62F
LIVINGSTON     FAIR      59  35  40 SW41G58   29.61F
MILES CITY     FAIR      59  38  45 SW16      29.52F
BIG TIMBER     MOCLDY    52  30  43 W9        29.67F
EKALAKA          N/A     56  34  43 SW7       29.62F
FORSYTH          N/A     64  34  32 SW12      29.54F
HARLOWTON      FAIR      54  31  42 W17       29.59F
LAUREL           N/A     52  34  50 W12       29.62F
ROUNDUP          N/A     58  32  37 SW8       29.53F
$$

REGIONAL REPORTS...DAKOTAS

CITY           SKY/WX    TMP DP  RH WIND       PRES   REMARKS
WILLISTON      FAIR      55  36  48 SW9       29.38F
MINOT          FAIR      55  37  50 SW16      29.32F
DICKINSON      FAIR      54  35  48 SW16      29.47F
BEACH          FAIR      50  34  53 SW12      29.53F
CROSBY         FAIR      54  37  54 NW15G22   29.35R
TIOGA          FAIR      52  36  54 SW14      29.37F
WATFORD CITY   FAIR      57  37  47 SW12      29.40F
BISMARCK       FAIR      53  36  52 SW8       29.46F
GRAND FORKS    FAIR      37  34  89 S12       29.35F WCI  29
FARGO          FAIR      42  34  73 S12       29.43F
RAPID CITY     FAIR      46  31  55 CALM      29.66F
$$

REGIONAL REPORTS...WYOMING/IDAHO/WASHINGTON

CITY           SKY/WX    TMP DP  RH WIND       PRES   REMARKS
GILLETTE       FAIR      56  35  45 SW20      29.72F
SHERIDAN       FAIR      59  29  31 W6        29.68F
BUFFALO WY     FAIR      61  24  24 SW24G31   29.74F
YELLOWSTONE LA   N/A     41  34  76 W12G28    29.99F
IDAHO FALLS    MOCLDY    52  42  69 S16       29.99F
SALMON         MOCLDY    52  36  54 VRB3      29.77F
BOISE          CLOUDY    60  44  55 S8        29.90F
SPOKANE        FAIR      47  41  80 SW16      29.75R
$$

REGIONAL REPORTS...ALBERTA

CITY           SKY/WX    TMP DP  RH WIND       PRES   REMARKS
EDMONTON       CLEAR     37  28  70 W12       29.31R WCI  30
CALGARY        MOCLDY    39  32  75 SW9G20    29.37F
LETHBRIDGE     MOCLDY    37  34  87 NW10      29.47R WCI  30
MEDICINE HAT   LGT RAIN  39  36  87 SE9       29.39F
$$

REGIONAL REPORTS...SASKATCHEWAN

CITY           SKY/WX    TMP DP  RH WIND       PRES   REMARKS
SWIFT CURRENT  LGT RAIN  36  34  93 NW12      29.40F WCI  27
REGINA         MOCLDY    36  34  93 SW7G17    29.32S WCI  30
SASKATOON      CLOUDY    36  32  87 SW15      29.28R WCI  26
$$




USA.gov is the U.S. government's official web portal to all federal, state and local government web resources and services.